When you browse on this site, cookies collect data to enhance your experience and personalize the content and advertising you see.
Visit our Privacy Policy to learn more. By continuing to use the site, you agree to this use of cookies and data.
  • în România
  • Lista ţărilor
  • Pe 7 zile
  • Temperatura apei
  • Hartă satelitară
  • Meteo pe hartă
  • Widget-uri
  • user-avatar
    Intrare

    Meteo pe oră la Muniaczkowice

    Astăzi, 22 Februarie, Vineri

    Timp Temperatura Precipitaţii Vânt Presiune Umiditate
    00:00 +3°C° 0.4 mm 5 m/s 741 mmHg 87%
    01:00 +4°C° 0 mm 4 m/s 741 mmHg 87%
    02:00 +4°C° 0.6 mm 4 m/s 741 mmHg 88%
    03:00 +3°C° 0.6 mm 5 m/s 741 mmHg 89%
    04:00 +3°C° 0.6 mm 5 m/s 741 mmHg 90%
    05:00 +2°C° 0.6 mm 6 m/s 742 mmHg 87%
    06:00 -1°C° 0.6 mm 7 m/s 742 mmHg 85%
    07:00 -2°C° 0.6 mm 7 m/s 743 mmHg 82%
    08:00 -3°C° 0.1 mm 7 m/s 745 mmHg 77%
    09:00 -3°C° 0.1 mm 7 m/s 746 mmHg 71%
    10:00 -4°C° 0.1 mm 7 m/s 747 mmHg 65%
    11:00 -4°C° 0 mm 7 m/s 748 mmHg 59%
    12:00 -3°C° 0 mm 7 m/s 749 mmHg 52%
    13:00 -3°C° 0 mm 7 m/s 750 mmHg 46%
    14:00 -4°C° 0 mm 7 m/s 750 mmHg 45%
    15:00 -4°C° 0 mm 6 m/s 751 mmHg 45%
    16:00 -5°C° 0 mm 6 m/s 751 mmHg 45%
    17:00 -5°C° 0 mm 6 m/s 752 mmHg 46%
    18:00 -6°C° 0 mm 5 m/s 753 mmHg 47%
    19:00 -6°C° 0 mm 5 m/s 754 mmHg 48%
    20:00 -6°C° 0 mm 5 m/s 754 mmHg 45%
    21:00 -6°C° 0 mm 5 m/s 755 mmHg 42%
    22:00 -6°C° 0 mm 5 m/s 756 mmHg 40%
    23:00 -7°C° 0 mm 5 m/s 756 mmHg 40%

    Mâine, 23 Februarie, Sâmbătă

    Timp Temperatura Precipitaţii Vânt Presiune Umiditate
    00:00 -7°C° 0 mm 5 m/s 756 mmHg 40%
    01:00 -7°C° 0 mm 4 m/s 757 mmHg 40%
    02:00 -7°C° 0 mm 4 m/s 757 mmHg 42%
    03:00 -7°C° 0 mm 4 m/s 757 mmHg 44%
    04:00 -6°C° 0 mm 3 m/s 757 mmHg 45%
    05:00 -6°C° 0 mm 3 m/s 757 mmHg 47%
    06:00 -7°C° 0 mm 3 m/s 757 mmHg 48%
    07:00 -7°C° 0 mm 3 m/s 757 mmHg 50%
    08:00 -6°C° 0 mm 3 m/s 758 mmHg 47%
    09:00 -5°C° 0 mm 3 m/s 758 mmHg 45%
    10:00 -5°C° 0 mm 3 m/s 758 mmHg 42%
    11:00 -4°C° 0 mm 3 m/s 758 mmHg 39%
    12:00 -2°C° 0 mm 3 m/s 758 mmHg 37%
    13:00 -2°C° 0 mm 3 m/s 758 mmHg 34%
    14:00 -2°C° 0 mm 2 m/s 758 mmHg 35%
    15:00 -2°C° 0 mm 2 m/s 758 mmHg 35%
    16:00 -2°C° 0 mm 2 m/s 757 mmHg 36%
    17:00 -1°C° 0 mm 1 m/s 757 mmHg 39%
    18:00 -1°C° 0 mm 1 m/s 757 mmHg 43%
    19:00 -2°C° 0 mm 1 m/s 758 mmHg 46%
    20:00 -2°C° 0 mm 1 m/s 758 mmHg 47%
    21:00 -2°C° 0 mm 1 m/s 758 mmHg 48%
    22:00 -3°C° 0 mm 0 m/s 757 mmHg 49%
    23:00 -2°C° 0 mm 1 m/s 757 mmHg 49%

    Poimâine, 24 Februarie, Duminică

    Timp Temperatura Precipitaţii Vânt Presiune Umiditate
    00:00 -2°C° 0 mm 1 m/s 757 mmHg 49%
    01:00 -2°C° 0 mm 1 m/s 757 mmHg 49%
    02:00 -2°C° 0 mm 1 m/s 757 mmHg 48%
    03:00 -2°C° 0 mm 1 m/s 756 mmHg 46%
    04:00 -1°C° 0 mm 1 m/s 756 mmHg 45%
    05:00 -1°C° 0 mm 1 m/s 756 mmHg 45%
    06:00 -1°C° 0 mm 1 m/s 756 mmHg 44%
    07:00 -1°C° 0 mm 1 m/s 756 mmHg 44%
    08:00 0°C° 0 mm 1 m/s 756 mmHg 39%
    09:00 -1°C° 0 mm 2 m/s 756 mmHg 35%
    10:00 +1°C° 0 mm 2 m/s 756 mmHg 30%
    11:00 +2°C° 0 mm 2 m/s 756 mmHg 28%
    12:00 +3°C° 0 mm 2 m/s 755 mmHg 26%
    13:00 +3°C° 0 mm 3 m/s 755 mmHg 24%
    14:00 +4°C° 0 mm 2 m/s 755 mmHg 29%
    15:00 +4°C° 0 mm 2 m/s 755 mmHg 33%
    16:00 +3°C° 0 mm 2 m/s 755 mmHg 37%
    17:00 +2°C° 0 mm 2 m/s 755 mmHg 40%
    18:00 +1°C° 0 mm 2 m/s 755 mmHg 43%
    19:00 -1°C° 0 mm 2 m/s 755 mmHg 46%
    20:00 -1°C° 0 mm 2 m/s 755 mmHg 47%
    21:00 -1°C° 0 mm 3 m/s 755 mmHg 47%
    22:00 -1°C° 0 mm 3 m/s 755 mmHg 48%
    23:00 -1°C° 0 mm 3 m/s 755 mmHg 49%

    25 Februarie, Luni

    Timp Temperatura Precipitaţii Vânt Presiune Umiditate
    00:00 -1°C° 0 mm 3 m/s 755 mmHg 51%
    01:00 -1°C° 0 mm 3 m/s 755 mmHg 52%
    02:00 -1°C° 0 mm 3 m/s 755 mmHg 53%
    03:00 -2°C° 0 mm 4 m/s 754 mmHg 54%
    04:00 -2°C° 0 mm 4 m/s 754 mmHg 55%
    05:00 -2°C° 0 mm 4 m/s 754 mmHg 57%
    06:00 -2°C° 0 mm 4 m/s 754 mmHg 58%
    07:00 -2°C° 0 mm 4 m/s 754 mmHg 60%
    08:00 -1°C° 0 mm 4 m/s 754 mmHg 58%
    09:00 +1°C° 0 mm 4 m/s 754 mmHg 56%
    10:00 +3°C° 0 mm 4 m/s 754 mmHg 55%
    11:00 +4°C° 0 mm 4 m/s 754 mmHg 56%
    12:00 +5°C° 0 mm 4 m/s 754 mmHg 58%
    13:00 +6°C° 0 mm 4 m/s 753 mmHg 60%
    14:00 +5°C° 0 mm 4 m/s 753 mmHg 64%
    15:00 +5°C° 0 mm 4 m/s 753 mmHg 68%
    16:00 +5°C° 0 mm 3 m/s 753 mmHg 72%
    17:00 +4°C° 0 mm 3 m/s 753 mmHg 78%
    18:00 +4°C° 0 mm 2 m/s 753 mmHg 84%
    19:00 +2°C° 0 mm 2 m/s 753 mmHg 90%
    20:00 +2°C° 0 mm 2 m/s 753 mmHg 91%
    21:00 +2°C° 0 mm 2 m/s 753 mmHg 91%
    22:00 +1°C° 0 mm 2 m/s 753 mmHg 92%
    23:00 +1°C° 0 mm 2 m/s 752 mmHg 92%

    26 Februarie, Marţi

    Timp Temperatura Precipitaţii Vânt Presiune Umiditate
    00:00 0°C° 0 mm 3 m/s 752 mmHg 93%
    01:00 0°C° 0 mm 3 m/s 752 mmHg 93%
    02:00 0°C° 0 mm 3 m/s 751 mmHg 92%
    03:00 -1°C° 0 mm 4 m/s 751 mmHg 92%
    04:00 0°C° 0 mm 4 m/s 750 mmHg 91%
    05:00 0°C° 0 mm 5 m/s 749 mmHg 89%
    06:00 0°C° 0 mm 5 m/s 749 mmHg 86%
    07:00 -1°C° 0 mm 6 m/s 748 mmHg 84%
    08:00 -1°C° 0 mm 6 m/s 748 mmHg 79%
    09:00 +1°C° 0 mm 6 m/s 748 mmHg 75%
    10:00 +2°C° 0 mm 6 m/s 747 mmHg 70%
    11:00 +2°C° 0.1 mm 6 m/s 747 mmHg 72%
    12:00 +2°C° 0.1 mm 6 m/s 747 mmHg 73%
    13:00 +3°C° 0.1 mm 6 m/s 747 mmHg 74%
    14:00 +3°C° 0 mm 6 m/s 747 mmHg 73%
    15:00 +3°C° 0 mm 6 m/s 746 mmHg 73%
    16:00 +4°C° 0 mm 6 m/s 746 mmHg 72%
    17:00 +3°C° 0 mm 6 m/s 746 mmHg 76%
    18:00 +2°C° 0 mm 6 m/s 747 mmHg 80%
    19:00 +2°C° 0 mm 5 m/s 747 mmHg 84%
    20:00 +1°C° 0 mm 5 m/s 747 mmHg 81%
    21:00 +1°C° 0 mm 5 m/s 747 mmHg 78%
    22:00 +1°C° 0 mm 5 m/s 747 mmHg 76%
    23:00 0°C° 0 mm 5 m/s 747 mmHg 77%

    27 Februarie, Miercuri

    Timp Temperatura Precipitaţii Vânt Presiune Umiditate
    00:00 -1°C° 0 mm 4 m/s 747 mmHg 79%
    01:00 -1°C° 0 mm 4 m/s 748 mmHg 80%
    02:00 -1°C° 0 mm 4 m/s 748 mmHg 83%
    03:00 -2°C° 0 mm 4 m/s 748 mmHg 85%
    04:00 -1°C° 0 mm 3 m/s 748 mmHg 88%
    05:00 -1°C° 0 mm 3 m/s 748 mmHg 89%
    06:00 -1°C° 0 mm 3 m/s 748 mmHg 90%
    07:00 -1°C° 0 mm 3 m/s 748 mmHg 91%
    08:00 0°C° 0 mm 3 m/s 748 mmHg 83%
    09:00 +1°C° 0 mm 3 m/s 748 mmHg 75%
    10:00 +3°C° 0 mm 3 m/s 748 mmHg 67%
    11:00 +4°C° 0 mm 3 m/s 748 mmHg 61%
    12:00 +5°C° 0 mm 3 m/s 748 mmHg 55%
    13:00 +7°C° 0 mm 3 m/s 748 mmHg 49%
    14:00 +7°C° 0 mm 3 m/s 747 mmHg 49%
    15:00 +7°C° 0 mm 3 m/s 747 mmHg 50%
    16:00 +7°C° 0 mm 3 m/s 746 mmHg 51%
    17:00 +5°C° 0 mm 3 m/s 746 mmHg 56%
    18:00 +4°C° 0 mm 3 m/s 745 mmHg 61%
    19:00 +3°C° 0 mm 3 m/s 745 mmHg 66%
    20:00 +1°C° 0 mm 4 m/s 745 mmHg 65%
    21:00 +1°C° 0 mm 4 m/s 744 mmHg 64%
    22:00 +1°C° 0 mm 4 m/s 743 mmHg 63%
    23:00 +1°C° 0 mm 4 m/s 743 mmHg 60%
    Arată mai mult